Temperature
9 9 8 8 8 8 9 8 8 8 8 8 8 8 8 8 8 9 8 8 8 8 8 8 8 8 8 8 8 8 9 9 9 9 9 9 9 9 9 9 9 9 9
8 8 8 8 8 8 8 8 8 8 8 8 8 8 8 8 8 8 8 8 8 7 7 7 7 7 7 7 7 7 8 8 8 8 8 8 8 8 8 9 9 8 9
8 8 8 7 7 7 7 7 7 7 7 7 7 7 7 7 7 7 7 7 7 7 7 7 7 7 7 7 7 7 7 7 7 7 7 8 8 8 8 8 8 8 8
7 7 7 7 7 7 7 7 7 7 7 7 7 6 6 6 6 6 6 6 6 6 7 7 7 7 6 6 6 6 6 6 7 7 7 7 7 7 7 7 7 7 8
7 7 6 6 6 6 6 6 6 6 6 6 6 6 6 6 6 6 6 5 6 6 6 6 6 6 6 6 6 6 6 6 6 6 6 6 6 6 7 7 7 7 7
6 6 6 6 6 6 6 6 6 5 5 5 5 5 5 5 5 5 5 5 5 5 5 5 6 6 6 6 5 5 5 5 5 5 5 6 6 6 6 6 6 6 7
6 6 6 6 5 5 5 5 5 5 5 5 5 4 4 4 4 4 4 4 4 4 4 5 5 5 5 5 5 5 5 5 5 5 5 5 5 5 5 6 6 6 6
5 5 5 5 5 5 5 5 5 4 4 4 4 4 3 3 3 3 3 3 3 4 4 4 4 4 4 4 4 4 4 4 4 4 4 4 4 5 5 5 5 5 5
5 5 5 5 5 5 4 4 4 4 4 4 3 3 3 2 2 2 3 3 3 3 3 3 3 3 3 3 4 4 4 4 3 3 3 3 4 4 4 4 4 5 5
5 5 4 4 4 4 4 4 4 3 3 3 3 3 3 3 2 1 2 2 2 2 2 2 2 2 2 3 3 3 3 3 3 3 3 3 3 3 3 3 4 4 4
4 4 4 4 4 4 3 3 3 3 3 3 3 2 2 2 2 2 1 1 1 2 2 1 2 2 2 2 2 2 2 2 2 2 2 2 2 2 3 3 3 3 3
4 4 4 3 3 3 3 3 3 2 2 2 2 2 2 2 2 1 1 1 1 1 1 1 1 1 1 1 1 1 1 1 1 1 1 1 2 2 2 2 2 2 2
3 3 3 3 3 3 2 2 2 2 2 2 1 1 1 1 1 1 1 0 -0 0 0 0 0 0 0 0 0 0 1 1 1 1 1 1 1 1 1 1 1 2 2
3 3 3 3 2 2 2 2 1 1 1 1 1 1 1 1 0 0 0 -0 -1 -1 -1 -0 -0 -0 -0 -0 -0 -0 -0 0 -0 -0 -0 0 0 0 1 1 1 1 1
2 2 2 2 2 1 1 1 1 1 1 1 0 0 0 0 -0 -0 -0 -1 -1 -2 -2 -1 -1 -1 -1 -1 -1 -1 -1 -1 -1 -1 -1 -1 -1 -0 -0 0 0 0 0
2 2 1 1 1 1 1 1 1 0 0 0 -0 -0 -0 -0 -1 -1 -1 -1 -1 -2 -2 -2 -2 -2 -2 -2 -2 -2 -1 -1 -1 -1 -1 -1 -1 -1 -1 -1 -0 -0 -0
1 1 1 1 0 0 0 0 -0 -0 -0 -0 -1 -1 -1 -1 -1 -1 -1 -1 -2 -2 -2 -2 -2 -2 -2 -2 -2 -2 -2 -2 -2 -2 -2 -2 -2 -2 -2 -2 -1 -1 -1
0 0 0 -0 -0 -0 -1 -1 -1 -1 -1 -1 -1 -1 -1 -1 -2 -2 -2 -2 -2 -2 -3 -3 -3 -3 -3 -3 -3 -3 -3 -3 -3 -3 -2 -2 -2 -2 -2 -2 -2 -2 -2
-1 -1 -1 -1 -1 -1 -1 -2 -2 -2 -2 -2 -2 -2 -2 -2 -2 -2 -2 -2 -3 -3 -3 -3 -3 -3 -3 -3 -3 -3 -3 -3 -3 -3 -3 -3 -3 -3 -3 -3 -2 -2 -2
-1 -1 -2 -2 -2 -2 -2 -2 -3 -3 -3 -3 -3 -3 -3 -3 -3 -3 -3 -3 -3 -3 -4 -4 -4 -4 -4 -4 -4 -4 -4 -4 -4 -3 -3 -3 -3 -3 -3 -3 -3 -3 -3
-2 -2 -2 -3 -3 -3 -3 -3 -3 -3 -3 -3 -3 -3 -3 -3 -4 -4 -4 -4 -4 -4 -4 -5 -5 -4 -4 -4 -5 -5 -5 -4 -4 -4 -4 -4 -4 -4 -4 -4 -4 -4 -4
-3 -3 -3 -3 -3 -4 -4 -4 -4 -4 -4 -4 -4 -4 -4 -4 -4 -5 -5 -5 -5 -5 -5 -5 -5 -5 -5 -5 -5 -5 -5 -5 -5 -5 -5 -4 -4 -4 -4 -4 -4 -4 -5
-3 -3 -4 -4 -4 -4 -5 -5 -5 -5 -5 -5 -5 -5 -5 -5 -5 -5 -5 -5 -5 -6 -6 -6 -6 -6 -6 -6 -6 -6 -6 -6 -6 -6 -6 -5 -5 -5 -5 -5 -5 -5 -5
-4 -4 -4 -5 -5 -5 -5 -5 -5 -6 -6 -6 -6 -6 -5 -5 -6 -6 -6 -6 -6 -6 -6 -6 -6 -6 -6 -6 -7 -7 -7 -7 -6 -6 -7 -6 -6 -5 -5 -5 -5 -6 -6
-5 -5 -5 -5 -6 -6 -6 -6 -6 -6 -6 -6 -6 -6 -6 -6 -6 -7 -7 -6 -6 -6 -7 -7 -7 -7 -7 -7 -7 -7 -7 -7 -7 -7 -7 -7 -7 -6 -6 -6 -6 -6 -6
-6 -6 -6 -6 -6 -6 -7 -7 -7 -7 -7 -7 -7 -7 -7 -7 -7 -7 -7 -7 -7 -7 -7 -7 -7 -7 -7 -7 -8 -8 -8 -8 -8 -8 -8 -8 -8 -8 -8 -7 -7 -7 -7
Wind_Speed
7 7 8 9 9 10 10 9 9 10 10 11 11 11 12 12 12 13 12 14 14 13 13 13 13 13 12 12 12 11 12 10 9 8 8 8 6 6 6 6 6 7 7
8 7 7 7 8 9 9 9 9 8 8 9 10 11 11 11 12 13 13 14 15 15 14 13 13 13 12 12 12 12 11 11 11 10 7 8 6 5 5 5 5 5 5
9 8 6 6 7 9 9 9 9 9 8 8 8 9 10 11 12 13 13 13 14 15 14 13 13 13 12 12 12 12 12 10 10 10 8 7 7 5 5 5 4 4 5
9 9 7 6 7 8 8 7 6 5 5 5 5 6 8 9 11 12 13 13 14 13 14 14 14 13 13 13 12 11 12 11 10 9 9 7 6 6 4 4 4 4 4
9 9 7 6 8 8 6 6 5 4 5 5 5 5 6 7 8 11 12 13 13 14 14 14 15 14 13 13 13 12 12 11 10 9 9 9 7 6 5 3 2 3 3
9 8 7 7 8 6 4 5 5 4 4 4 5 6 5 6 7 8 9 11 12 13 14 13 13 12 13 13 13 13 12 11 11 9 9 9 7 7 5 4 2 2 2
8 8 7 6 6 5 4 5 5 6 4 3 4 4 4 5 6 6 7 8 10 11 12 12 12 12 12 13 13 13 12 12 11 11 9 9 8 7 6 5 3 3 3
7 7 7 6 6 5 5 5 5 3 2 2 2 2 2 3 4 5 4 5 7 8 9 10 11 11 11 12 12 13 12 12 12 11 10 9 9 8 8 7 5 4 3
6 7 7 6 6 5 5 5 5 4 3 2 2 2 2 2 1 3 4 4 5 5 7 8 9 9 10 11 11 12 13 12 12 11 11 10 9 9 8 8 7 6 4
6 7 7 7 6 5 5 4 3 3 4 3 2 2 1 2 2 0 2 3 4 4 5 6 7 8 9 10 10 12 13 13 13 11 11 11 10 10 10 8 7 7 5
4 6 7 7 6 4 5 4 3 3 3 3 2 1 2 2 2 2 1 2 3 3 4 4 5 6 8 9 9 11 13 13 13 12 12 11 11 11 10 9 7 7 6
3 4 6 6 6 5 5 4 4 4 3 3 2 2 2 2 1 1 1 1 2 2 3 3 3 4 7 9 9 11 12 13 13 13 13 12 11 11 10 9 7 7 7
3 4 4 5 5 5 6 5 4 4 4 4 3 2 2 1 1 1 2 0 1 2 1 1 2 4 5 9 9 11 11 12 12 13 13 13 12 12 11 9 8 7 7
4 4 5 5 5 6 6 5 4 3 3 3 3 3 2 1 1 2 2 1 0 1 1 2 2 2 5 7 9 10 9 11 12 12 12 13 13 13 11 10 9 7 7
4 5 5 5 5 5 6 5 4 4 3 3 3 3 2 1 1 1 1 2 2 1 2 2 1 2 6 7 8 9 9 10 11 11 11 12 12 13 12 12 10 8 7
5 5 5 5 5 5 5 5 4 4 4 3 2 3 2 1 1 1 1 1 1 2 2 2 2 3 5 6 8 9 9 10 10 10 11 11 11 12 12 12 12 9 8
5 6 5 5 6 6 5 6 5 5 5 3 3 3 2 2 2 1 1 1 1 1 2 2 2 2 2 4 7 8 8 8 8 10 10 11 11 11 11 11 12 10 9
5 5 5 5 5 5 6 6 6 5 5 5 4 4 3 2 2 2 2 1 1 1 2 3 3 2 3 3 5 5 7 8 8 9 10 10 10 11 11 11 12 10 10
5 5 5 5 5 5 5 5 6 5 5 5 4 4 4 3 3 2 2 2 1 1 1 2 3 2 2 3 3 4 6 6 8 9 10 9 9 10 11 11 11 10 10
5 5 5 5 5 5 5 5 5 5 4 4 4 4 4 4 4 3 3 2 2 1 1 2 2 3 2 2 2 3 4 4 6 8 8 8 9 10 11 11 11 10 9
5 5 5 4 4 4 5 5 5 5 4 3 3 3 3 4 5 4 3 3 3 2 1 2 2 2 3 2 2 2 4 5 5 4 5 6 7 7 9 10 10 10 9
4 5 5 4 4 3 5 6 5 5 4 4 3 3 3 3 4 5 5 4 4 3 3 2 2 3 4 3 3 3 3 4 4 3 3 6 6 5 8 9 10 10 9
4 4 4 4 4 4 5 5 5 4 4 3 3 3 2 3 3 2 3 3 3 4 4 3 4 4 4 4 3 4 3 4 5 4 4 6 4 5 8 10 12 11 10
4 4 3 3 3 4 5 5 4 3 3 3 3 3 3 3 3 3 2 2 2 3 4 3 4 4 4 4 4 4 4 4 5 5 3 4 4 5 8 10 10 10 10
3 3 3 3 3 3 4 4 3 3 2 2 2 3 3 3 5 5 3 3 3 3 4 5 5 5 6 6 4 2 2 3 4 4 2 2 3 4 5 5 7 9 10
3 3 2 2 2 2 4 4 3 2 2 2 2 2 4 4 5 6 4 4 4 3 2 2 3 4 4 5 5 3 2 3 3 3 2 2 3 3 4 3 4 6 8
Wind_Direction
95 86 82 79 78 79 78 75 71 65 61 59 60 61 56 51 47 46 44 48 51 53 55 54 53 53 52 50 48 48 48 45 42 43 46 45 53 58 62 63 61 56 51
108 99 89 83 81 82 84 82 78 72 63 62 58 57 57 54 51 48 46 46 47 49 52 52 51 51 50 48 46 44 44 43 40 36 37 36 38 51 58 59 57 54 51
118 109 98 89 87 90 89 85 79 75 69 63 57 53 55 54 53 50 49 47 46 44 46 48 48 47 46 45 43 39 37 36 34 31 31 33 33 42 55 54 49 48 46
125 116 106 100 101 97 93 90 83 83 70 63 57 52 52 55 55 54 54 52 50 46 44 46 45 44 42 40 39 37 31 27 26 26 25 26 24 24 34 40 42 42 37
131 122 114 111 110 99 91 93 88 91 84 70 62 56 51 54 54 57 55 53 52 50 48 45 43 42 40 37 34 31 28 23 19 20 16 16 16 11 13 13 27 31 27
134 125 116 116 114 104 96 97 99 84 89 83 75 58 45 48 54 54 53 54 52 50 47 44 42 38 35 33 30 27 23 20 17 14 13 10 6 3 359 359 351 358 2
136 129 123 119 115 114 117 118 112 96 82 83 80 61 40 41 48 46 49 53 48 47 47 43 42 41 34 28 25 22 18 15 12 10 7 6 1 354 352 355 349 1 349
140 139 135 131 128 125 129 130 122 107 88 51 88 95 60 25 24 25 36 50 43 44 43 39 41 41 36 32 21 17 13 9 4 2 1 358 357 351 348 348 345 340 347
144 143 143 137 138 139 149 149 140 127 132 55 51 108 133 182 337 1 16 33 33 39 37 38 40 35 35 30 19 13 10 4 358 355 355 352 348 347 342 340 342 341 332
147 147 146 142 140 139 146 156 136 137 141 134 68 52 90 142 147 33 351 9 18 23 25 29 33 32 30 25 15 11 9 2 355 351 348 348 341 336 337 329 338 336 336
145 148 149 147 143 143 148 146 132 131 139 143 139 117 81 67 96 150 234 326 354 3 12 19 28 29 23 21 13 7 5 0 357 349 343 340 338 330 328 325 323 320 315
138 145 149 150 152 151 154 154 144 137 135 127 128 136 144 144 147 141 172 290 320 332 347 13 19 18 15 12 7 1 360 358 356 353 346 338 334 331 323 323 318 317 314
167 170 153 153 157 159 158 153 143 142 139 137 140 135 130 140 154 147 146 206 305 309 330 349 356 3 7 4 356 355 354 353 353 351 350 347 340 332 330 322 320 318 316
175 167 158 156 158 158 157 151 145 144 139 139 139 132 122 126 139 152 157 157 325 322 315 295 321 351 357 351 347 350 351 349 349 350 350 351 352 348 340 334 327 318 317
159 153 152 152 153 155 153 147 142 146 139 141 144 135 129 126 121 121 134 163 167 227 287 289 307 333 338 338 341 348 344 342 345 345 347 349 351 349 345 341 332 319 317
151 149 154 155 153 153 152 145 144 144 142 149 145 141 140 134 125 112 131 136 151 185 242 278 285 307 324 332 335 341 337 337 340 340 342 344 345 343 343 342 342 330 320
156 159 160 157 157 158 154 152 156 153 153 156 156 152 155 142 141 143 140 137 143 166 231 287 297 309 313 327 332 334 334 332 331 333 336 338 340 340 338 337 337 333 330
162 158 153 154 159 160 160 162 166 162 163 169 173 164 170 156 151 157 159 169 186 193 210 262 298 302 296 308 320 330 332 332 326 326 330 331 334 335 332 333 332 330 328
157 152 154 160 162 163 164 167 167 168 171 178 180 178 180 165 175 180 175 184 200 205 206 234 278 290 292 304 320 321 322 324 322 322 325 325 326 328 329 329 330 326 325
157 158 162 163 162 164 167 168 165 166 168 175 180 183 184 186 190 189 190 190 187 190 200 228 268 284 287 294 300 310 318 322 320 319 320 319 321 325 325 324 324 322 321
158 158 156 153 155 161 169 167 166 165 167 171 180 189 194 197 200 198 198 193 187 190 206 237 266 287 294 301 297 298 309 316 310 305 317 314 315 315 317 317 318 317 315
154 153 157 157 161 172 182 183 172 166 172 177 184 192 199 207 212 219 222 217 203 200 208 230 255 265 276 279 283 294 303 317 309 312 317 304 303 296 301 303 308 311 310
148 149 154 159 167 182 190 190 187 166 172 182 188 195 212 212 216 214 233 248 247 242 234 226 238 251 260 262 269 280 283 287 282 290 303 291 287 287 293 294 301 303 305
151 156 166 171 175 193 192 192 188 165 168 185 197 202 206 209 216 209 204 224 243 255 254 246 239 249 255 253 244 255 267 280 283 278 277 281 287 286 294 290 291 299 306
151 157 165 168 175 198 201 194 185 156 168 189 205 201 209 216 233 225 206 217 248 265 265 269 270 272 280 282 273 277 286 295 293 289 273 270 290 300 290 279 291 306 312
147 149 161 163 174 194 208 202 191 167 172 187 206 216 225 230 241 233 210 208 232 249 256 277 285 295 294 290 285 257 245 265 281 285 273 281 291 315 305 283 290 301 302
Height
1529 1530 1531 1532 1533 1534 1535 1536 1536 1538 1538 1539 1540 1541 1542 1543 1544 1544 1545 1546 1547 1547 1548 1548 1549 1549 1549 1550 1550 1550 1550 1551 1551 1551 1551 1552 1552 1552 1552 1553 1554 1554 1555
1528 1529 1530 1532 1533 1534 1534 1535 1536 1537 1538 1538 1539 1540 1542 1542 1543 1543 1544 1544 1545 1546 1547 1547 1547 1548 1548 1549 1549 1549 1549 1550 1550 1550 1550 1550 1550 1551 1551 1552 1552 1553 1553
1527 1528 1529 1530 1532 1533 1534 1535 1536 1537 1537 1538 1539 1540 1541 1541 1542 1542 1543 1543 1544 1545 1545 1546 1546 1546 1547 1547 1547 1548 1548 1548 1549 1549 1549 1549 1549 1549 1550 1550 1551 1551 1551
1526 1527 1528 1529 1530 1532 1533 1534 1535 1536 1536 1537 1538 1539 1540 1541 1541 1542 1542 1542 1543 1543 1544 1544 1545 1545 1545 1546 1546 1546 1547 1547 1547 1547 1548 1548 1548 1548 1548 1549 1549 1549 1550
1524 1526 1527 1528 1529 1530 1531 1533 1534 1534 1535 1536 1537 1538 1539 1540 1540 1541 1541 1541 1542 1542 1542 1543 1543 1543 1544 1544 1544 1545 1545 1545 1545 1545 1546 1546 1546 1546 1546 1547 1547 1547 1548
1522 1524 1525 1526 1527 1529 1530 1531 1532 1533 1534 1535 1536 1537 1538 1538 1539 1540 1540 1540 1541 1541 1541 1541 1541 1542 1542 1542 1542 1543 1543 1543 1543 1543 1543 1544 1544 1544 1544 1544 1545 1545 1545
1519 1521 1523 1524 1525 1527 1528 1529 1530 1531 1532 1533 1534 1535 1536 1538 1538 1539 1539 1539 1539 1540 1540 1540 1540 1540 1540 1540 1540 1540 1541 1541 1541 1541 1541 1541 1541 1542 1542 1542 1542 1542 1543
1516 1518 1520 1522 1523 1525 1526 1527 1528 1529 1530 1532 1533 1533 1535 1538 1537 1537 1538 1538 1538 1538 1538 1538 1538 1538 1538 1538 1538 1538 1538 1538 1538 1538 1538 1538 1538 1539 1539 1539 1539 1539 1539
1514 1516 1518 1519 1521 1522 1523 1524 1526 1527 1528 1530 1531 1533 1534 1534 1535 1536 1536 1537 1537 1537 1537 1537 1537 1536 1536 1536 1536 1536 1535 1535 1535 1535 1535 1535 1535 1535 1535 1536 1535 1535 1535
1512 1513 1515 1517 1518 1519 1521 1522 1524 1525 1526 1527 1529 1531 1532 1532 1533 1533 1534 1535 1535 1535 1535 1535 1535 1534 1534 1534 1534 1533 1533 1532 1532 1531 1531 1531 1531 1532 1532 1532 1532 1531 1531
1509 1511 1513 1514 1516 1517 1519 1520 1521 1523 1524 1526 1527 1528 1530 1530 1531 1532 1531 1532 1533 1533 1533 1533 1532 1532 1532 1531 1531 1530 1530 1529 1528 1528 1527 1527 1527 1527 1528 1528 1528 1527 1527
1506 1507 1509 1511 1513 1515 1516 1518 1519 1521 1522 1524 1525 1526 1527 1528 1529 1529 1529 1529 1529 1530 1530 1530 1530 1530 1529 1529 1528 1527 1527 1526 1525 1524 1523 1523 1522 1523 1523 1523 1523 1523 1523
1502 1504 1506 1508 1510 1512 1514 1516 1517 1518 1520 1521 1523 1524 1525 1526 1527 1527 1527 1527 1527 1527 1527 1528 1528 1527 1527 1526 1525 1524 1523 1523 1522 1520 1519 1518 1518 1518 1518 1518 1518 1518 1519
1499 1501 1503 1505 1507 1509 1511 1513 1514 1516 1517 1519 1520 1521 1522 1523 1524 1525 1525 1526 1525 1524 1524 1525 1525 1525 1524 1523 1522 1522 1521 1520 1518 1517 1516 1515 1514 1513 1513 1513 1514 1514 1514
1495 1498 1500 1502 1504 1506 1507 1509 1511 1513 1514 1516 1517 1519 1519 1520 1521 1522 1523 1524 1524 1522 1521 1521 1522 1522 1521 1521 1519 1519 1518 1517 1515 1514 1513 1512 1510 1510 1509 1509 1509 1510 1510
1492 1494 1496 1498 1500 1502 1504 1506 1508 1510 1511 1513 1514 1515 1516 1517 1518 1519 1520 1521 1521 1521 1519 1519 1519 1519 1519 1518 1517 1516 1515 1514 1513 1511 1510 1509 1508 1507 1506 1505 1506 1505 1505
1488 1490 1492 1494 1496 1498 1500 1502 1504 1506 1508 1509 1511 1512 1513 1514 1515 1516 1517 1517 1518 1518 1517 1516 1517 1516 1516 1515 1514 1513 1512 1511 1510 1509 1507 1506 1505 1504 1503 1503 1502 1501 1501
1485 1487 1489 1490 1492 1494 1497 1498 1500 1502 1504 1506 1507 1508 1509 1511 1512 1513 1513 1513 1514 1514 1514 1513 1513 1513 1512 1512 1511 1510 1509 1508 1507 1506 1504 1503 1502 1501 1500 1499 1498 1497 1497
1482 1483 1485 1487 1489 1491 1493 1495 1497 1498 1500 1502 1503 1505 1506 1507 1508 1509 1509 1510 1510 1511 1511 1510 1509 1509 1509 1509 1508 1507 1506 1505 1504 1502 1501 1500 1499 1498 1496 1495 1494 1493 1492
1478 1480 1482 1484 1486 1488 1489 1491 1493 1494 1496 1498 1500 1501 1502 1503 1504 1505 1506 1506 1507 1507 1507 1507 1506 1506 1506 1505 1504 1503 1502 1501 1500 1499 1498 1496 1495 1494 1493 1491 1490 1489 1488
1475 1477 1479 1480 1482 1484 1486 1488 1490 1491 1493 1494 1496 1497 1499 1500 1501 1502 1502 1503 1503 1503 1504 1503 1503 1502 1502 1501 1501 1499 1498 1497 1496 1495 1493 1492 1491 1490 1489 1487 1486 1485 1484
1473 1474 1476 1477 1479 1481 1483 1485 1487 1488 1489 1491 1492 1494 1495 1496 1497 1498 1499 1499 1500 1500 1500 1500 1499 1499 1498 1498 1497 1496 1495 1493 1491 1492 1490 1488 1488 1486 1484 1483 1482 1481 1480
1470 1471 1473 1474 1476 1478 1480 1482 1483 1485 1486 1487 1489 1490 1491 1492 1493 1494 1494 1495 1496 1496 1496 1496 1495 1495 1495 1494 1493 1492 1491 1490 1488 1487 1485 1483 1483 1481 1480 1478 1477 1476 1475
1467 1468 1471 1472 1474 1476 1478 1479 1480 1481 1483 1484 1485 1487 1488 1488 1489 1490 1490 1491 1491 1491 1492 1492 1491 1491 1491 1490 1490 1489 1488 1486 1485 1484 1482 1479 1477 1476 1475 1474 1473 1472 1471
1464 1466 1468 1470 1471 1473 1475 1476 1477 1478 1479 1481 1482 1483 1484 1485 1485 1486 1487 1487 1487 1487 1487 1487 1487 1487 1487 1486 1486 1485 1484 1482 1480 1479 1478 1476 1473 1471 1469 1468 1468 1467 1466
1461 1463 1465 1467 1469 1470 1472 1473 1474 1475 1476 1477 1478 1479 1480 1481 1482 1482 1482 1483 1482 1482 1483 1483 1483 1483 1482 1482 1481 1481 1479 1478 1476 1475 1473 1472 1469 1467 1464 1462 1462 1462 1461